Francistown, Botswana

4:55 AM CAT on October 19, 2017 (GMT +0200)
Francistown

Weather History for FBFT - October, 2012

Change the Weather History Date:

Saturday, October 6, 2012

  Actual Average Record
Temperature  
Mean Temperature 82 °F -  
Max Temperature 97 °F 87 °F 100 °F (1998)
Min Temperature 66 °F 62 °F 50 °F (2016)
Cooling Degree Days 16    
Growing Degree Days 32 (Base 50)    
Moisture  
Dew Point 40 °F    
Average Humidity 26    
Maximum Humidity 56    
Minimum Humidity 5    
Precipitation  
Precipitation 0.00 in - - ()
Sea Level Pressure  
Sea Level Pressure 30.02 in    
Wind  
Wind Speed 10 mph ()    
Max Wind Speed 18 mph    
Max Gust Speed 29 mph    
Visibility 6.0 miles    
Events      
Averages and records for this station are not official NWS values.
T = Trace of Precipitation, MM = Missing Value Source: Averaged Metar Reports

Daily Weather History Graph

Daily Weather History Graph

Search for Another Location

Airport or City:

Trip Planner

Search our weather history database for the weather conditions in past years. The results will help you decide how hot, cold, wet, or windy it might be!

Date:

Astronomy

Oct. 06, 2012 Rise Set
Actual Time 5:46 AM CAT 6:10 PM CAT
Civil Twilight 5:24 AM CAT 6:32 PM CAT
Nautical Twilight 4:57 AM CAT 6:58 PM CAT
Astronomical Twilight 4:31 AM CAT 7:24 PM CAT
Moon 11:33 PM CAT (10/6) 9:58 AM CAT (10/6)
Length of Visible Light 13h 08m
Length of Day
12h 23m
Waning Gibbous, 68% of the Moon is Illuminated
Oct 6
Waning Gibbous
Oct 8
Last Quarter
Oct 15
New
Oct 22
First Quarter
Oct 29
Full

Hourly Weather History & Observations

Time (CAT) Temp. Dew Point Humidity Pressure Visibility Wind Dir Wind Speed Gust Speed Precip Events Conditions
12:00 AM 77.0 °F 46.4 °F 34% 30.04 in - ESE 11.5 mph - N/A   Clear
1:00 AM 75.2 °F 48.2 °F 38% 30.04 in - East 9.2 mph - N/A   Clear
2:00 AM 71 °F 49 °F 34%  in 6 mi ESE 10.4 mph - -  
2:00 AM 71.6 °F 48.2 °F 43% 30.04 in - ESE 10.4 mph - N/A   Clear
3:00 AM 69.8 °F 50.0 °F 49% 30.04 in - ESE 6.9 mph - N/A   Clear
4:00 AM 66.2 °F 48.2 °F 52% 30.04 in - SE 4.6 mph - N/A   Clear
5:00 AM 64.4 °F 48.2 °F 56% 30.04 in - ESE 6.9 mph - N/A   Clear
6:00 AM 66.2 °F 50.0 °F 56% 30.06 in - East 5.8 mph - N/A   Clear
7:00 AM 68.0 °F 50.0 °F 52% 30.09 in - ENE 5.8 mph - N/A   Clear
8:00 AM 75 °F 49 °F 29%  in 6 mi East 16.1 mph - -  
8:00 AM 75.2 °F 48.2 °F 38% 30.09 in - East 16.1 mph - N/A   Clear
9:00 AM 80.6 °F 46.4 °F 30% 30.09 in - East 16.1 mph - N/A   Clear
10:00 AM 86.0 °F 46.4 °F 25% 30.09 in - East 13.8 mph - N/A   Clear
11:00 AM 91.4 °F 44.6 °F 20% 30.06 in - East 12.7 mph - N/A   Clear
1:00 PM 95.0 °F 35.6 °F 12% 30.01 in - ESE 11.5 mph - N/A   Clear
2:00 PM 96 °F 31 °F 5%  in 6 mi ESE 13.8 mph - -  
2:00 PM 95.0 °F 32.0 °F 11% 29.98 in - ESE 13.8 mph - N/A   Clear
3:00 PM 96.8 °F 33.8 °F 11% 29.95 in - East 15.0 mph 28.8 mph N/A   Clear
4:00 PM 95.0 °F 30.2 °F 10% 29.95 in - East 15.0 mph - N/A   Clear
5:00 PM 93.2 °F 30.2 °F 11% 29.95 in - East 16.1 mph - N/A   Clear
6:00 PM 91.4 °F 32.0 °F 12% 29.95 in - ESE 18.4 mph - N/A   Clear
7:00 PM 86.0 °F 28.4 °F 12% 29.98 in - ESE 11.5 mph - N/A   Clear
8:00 PM 82 °F 29 °F 7%  in 6 mi SE 8.1 mph - -  
8:00 PM 82.4 °F 30.2 °F 15% 30.01 in - SE 8.1 mph - N/A   Clear
9:00 PM 80.6 °F 30.2 °F 16% 30.01 in - ESE 10.4 mph - N/A   Clear
10:00 PM 80.6 °F 30.2 °F 16% 30.01 in - ESE 11.5 mph - N/A   Clear
11:00 PM 78.8 °F 30.2 °F 17% 30.01 in - East 10.4 mph - N/A   Clear